Regional Weather Roundup
Issued by NWS Pendleton, OR

Home | Current Version | Previous Version | Text Only | Print | Product List | Glossary On
Versions: 1 2 3 4 5 6 7 8 9 10 11 12 13 14 15 16 17 18 19 20 21 22 23 24 25 26 27 28 29 30 31 32 33 34 35 36 37 38 39 40 41 42 43 44 45 46 47 48 49 50
000
ASUS46 KPDT 262225
RWRPDT
PENDLETON REGIONAL WEATHER ROUNDUP
NATIONAL WEATHER SERVICE PENDLETON OREGON
300 PM PDT THU MAR 26 2015

NOTE: FAIR INDICATES FEW OR NO CLOUDS BELOW 12,000 FEET WITH NO
SIGNIFICANT WEATHER AND/OR OBSTRUCTIONS TO VISIBILITY.

# INDICATES UNOFFICIAL STATION AND DATA

WAZ520-262310-
EAST SLOPES OF WASHINGTON CASCADES

CITY            SKY/WX      TMP DP  RH  WIND    PRES   REMARKS
#BUMPING DAM    N/A         60  N/A N/A S7      N/A
#CLE ELUM HS    N/A         67  46  47  CALM    30.16F
#CLE ELUM LAKE  N/A         60  49  67  W1      30.22F
#CLIFFDEL 2NW   N/A         67  44  43  CALM    N/A
#GLENWOOD       N/A         69  51  53  CALM    30.19F
#MANASTASH CYN  N/A         64  47  54  N2      30.18F
#NELSON 3SW     N/A         58  50  75  CALM    30.45F
#NILE           N/A         66  47  50  E1      29.46F
#RONALD 2NW     N/A         59  31  34  SW1     30.07S
#SNOWDEN        N/A         63  35  35  CALM    N/A
#TEANAWAY 4NE   N/A         66  50  56  CALM    N/A
#TROUT LAKE 1NE N/A         67  48  50  CALM    30.19F
$$

WAZ521-262310-
SIMCOE HIGHLANDS

CITY            SKY/WX      TMP DP  RH  WIND    PRES   REMARKS
#CENTERVILLE 1SWN/A         65  49  56  S2      30.14F
#GOLDENDALE     N/A         66  48  52  S3      N/A
#GOLDENDALE 1NE N/A         66  36  33  SE2     N/A
#GOLDENDALE 5WNWN/A         67  49  52  SW2     30.17F
#GOODNOE HILLS  N/A         73  51  46  S3      N/A
#LYLE 6NE       N/A         62  54  75  SW1     30.18F
$$

WAZ026-262310-
KITTITAS VALLEY

CITY            SKY/WX      TMP DP  RH  WIND    PRES   REMARKS
ELLENSBURG AP   PTCLDY      70  45  41  VRB3    30.21F
#ELLENSBURG CWU N/A         68  47  47  SE3     30.16F
#ELLENSBURG 3NE N/A         65  49  56  CALM    30.20F
#ELLENSBURG 1E  N/A         73  47  40  CALM    N/A
#KITTITAS 4N    N/A         66  50  56  SW3     28.51F
#KITTITAS 3S    N/A         65  49  56  W1      30.20F
#THORP 6N       N/A         62  46  56  E2      30.25F
$$

WAZ027-262310-
YAKIMA VALLEY

CITY            SKY/WX      TMP DP  RH  WIND    PRES   REMARKS
SUNNYSIDE AP    PTCLDY      68  50  53  CALM    30.20F
YAKIMA AIRPORT  SUNNY       71  47  42  E7      30.21F
#DONALD 2NE     N/A         81  36  20  CALM    29.04F
#MABTON         N/A         69  55  61  E3      30.19F
#MOXEE 2E       N/A         67  25  20  S5      30.05F
#NACHES 2SW     N/A         66  51  58  E2      30.27S
#OUTLOOK DOT    N/A         N/A N/A N/A N1      N/A
#SELAH 8E       N/A         68  45  44  SW3     N/A
#TERRACE HTS    N/A         69  48  47  SW1     30.18F
#TOPPENISH      N/A         67  49  52  SE2     30.12F
#WAPATO 4NE     N/A         81  36  20  CALM    29.04F
#WEST VALLEY    N/A         66  48  52  CALM    30.19F
#W YAKIMA       N/A         67  49  52  S1      30.20F
#WHITE SWAN 5E  N/A         67  51  56  N3      30.20F
#WILEY CITY 3W  N/A         68  45  44  SW2     30.23F
$$

WAZ028-262310-
LOWER COLUMBIA BASIN...WASHINGTON

CITY            SKY/WX      TMP DP  RH  WIND    PRES   REMARKS
HANFORD         MOSUNNY     71  49  46  E7      30.21F
PASCO           SUNNY       71  49  46  VRB5    30.21F
PROSSER AWOS    N/A         70  50  49  E2      30.23F
RICHLAND AWOS   SUNNY       72  50  46  SE6     30.21F
#BASIN CITY 5SW N/A         70  54  57  E2      30.22F
#BENTON CITY    N/A         73  47  40  S5      30.10F
#CONNELL 5N     N/A         68  50  53  E2      30.22F
#CONNELL 5NW    N/A         67  50  54  S5      30.19F
#ELTOPIA        N/A         72  52  49  E2      30.17F
#KAHLOTUS       N/A         67  46  47  W2      30.23F
#KENNEWICK 3S   N/A         71  52  51  CALM    30.22F
#PASCO-BROADMOORN/A         78  52  40  CALM    30.09F
#PATERSON       N/A         69  47  45  S2      30.19F
#PROSSER        N/A         70  49  47  CALM    30.21F
#SAGEMOOR 2W    N/A         68  53  59  SE3     30.06F
#TOUCHET 2S     N/A         70  52  53  CALM    30.20F
#WEST PASCO     N/A         74  54  50  E1      30.22F
$$

WAZ029-262310-
FOOTHILLS OF THE BLUES...WASHINGTON

CITY            SKY/WX      TMP DP  RH  WIND    PRES   REMARKS
WALLA WALLA AP  SUNNY       71  47  42  NW6     30.22F
#DAYTON SCHOOL  N/A         69  39  33  W2      30.24F
#LOWDEN 2SE     N/A         73  49  43  N1      30.17F
#PLEASANT VIEW 1N/A         66  46  48  CALM    30.28F
#PRESCOTT       N/A         71  47  42  CALM    30.22F
#SUDBURY        N/A         72  N/A N/A CALM    N/A
#WHITMAN COLLEGEN/A         70  47  44  N3      30.25F
#WAITSBURG 5S   N/A         66  49  54  W3      30.32F
#WAITSBURG 8N   N/A         73  24  16  E1      30.09F
#WALLA WALLA 5E N/A         70  48  46  NE2     N/A
#WALLA WALLA U  N/A         72  47  41  CALM    30.21F
#WHITMAN MISSIONN/A         71  48  44  CALM    30.22F
$$

WAZ030-262310-
BLUE MOUNTAINS...WASHINGTON

CITY            SKY/WX      TMP DP  RH  WIND    PRES   REMARKS
#DIXIE 5SE      N/A         62  43  50  NW2     30.20F
$$

ORZ009-041-WAZ024-262310-
COLUMBIA RIVER GORGE

CITY            SKY/WX      TMP DP  RH  WIND    PRES   REMARKS
HOOD RIVER AP   SUNNY       70  52  53  CALM    30.18F
THE DALLES AP   SUNNY       69  47  45  CALM    30.18
#ARLINGTON AIRPON/A         67  52  59  N5      29.83
#CELILO DOT     N/A         65  44  46  CALM    N/A
#LYLE           N/A         66  53  63  SW5     30.18F
#MOSIER 1S      N/A         68  40  36  CALM    30.18F
#RUFUS DOT      N/A         65  45  48  CALM    N/A

$$

ORZ510-262310-
NORTH CENTRAL OREGON

CITY            SKY/WX      TMP DP  RH  WIND    PRES   REMARKS
#CHENOWITH 1W   N/A         61  50  67  E6      N/A
#COW CYN RST AREN/A         69  44  40  SW1     N/A
#DUFUR 9E       N/A         60  52  75  N7      30.24F
#GRASS VALLEY 1SN/A         69  52  55  NE6     30.19F
#KENT DOT       N/A         71  38  30  NE3     N/A
#MAUPIN SCHOOL  N/A         72  50  46  N2      30.17F
#MORO SCHOOL    N/A         69  54  59  NE1     30.21F
#SHANIKO 5WSW   N/A         69  34  27  S5      N/A
#SHANIKO 4NW    N/A         69  41  36  W1      30.23F
#TYGH VALLEY 2NEN/A         71  47  42  CALM    30.16F
#WAPANITIA AIRPON/A         69  50  51  E2      30.19F
#WASCO DOT      N/A         70  48  46  E7      N/A
#WASCO AIRPORT  N/A         67  52  59  NE5     N/A
#WASCO 5NE      N/A         68  52  57  E3      30.20F
$$

ORZ511-262310-
CENTRAL OREGON

CITY            SKY/WX      TMP DP  RH  WIND    PRES   REMARKS
BEND AIRPORT    SUNNY       N/A N/A N/A MISG    N/A
MADRAS AIRPORT  SUNNY       68  46  45  CALM    30.21F
PRINEVILLE AP   SUNNY       73  41  31  E12     30.18F
REDMOND AIRPORT SUNNY       75  41  29  N6      30.18F
#BEND 6E        N/A         74  36  25  CALM    30.07F
#BEND 1SW       N/A         70  43  38  CALM    N/A
#BEND-AWBREY    N/A         73  44  35  S2      30.18F
#BEND-KIM LN    N/A         75  48  38  W1      30.18F
#CROOKED RVR RANN/A         74  44  34  SE6     30.15F
#CULVER         N/A         70  48  46  N5      30.14F
#LAKE BILLY CHINN/A         70   3   7  N3      30.19F
#MADRAS         N/A         69  47  45  NE3     N/A
#PRINEVILLE 3N  N/A         74  46  37  SE3     30.11F
#WARM SPRINGS   N/A         72  49  44  N2      30.14F

$$


ORZ509-262310-
EAST SLOPES OF OREGON CASCADES

CITY            SKY/WX      TMP DP  RH  WIND    PRES   REMARKS
#BLUE BOX PASS  N/A         68  12  11  S2      N/A
#CAMP SHERMAN   N/A         74  41  30  CALM    30.16F
#LA PINE 4NW    N/A         71  44  38  CALM    30.26F
#LAVA BUTTE DOT N/A         70  33  25  CALM    N/A
#SISTERS AIRPOR N/A         73  51  46  CALM    30.17S
#SISTERS ODOT   N/A         73  N/A N/A CALM    N/A
#SISTERS 1NW    N/A         71  40  32  W7      N/A
#SISTERS 3N     N/A         71  46  41  E2      30.22F
#SUNRIVER       N/A         70  42  36  E2      30.10F
#TUMALO 3W      N/A         72  40  31  E7      30.04F
#WANOGA BUTTE D N/A         60  36  41  W6      N/A

$$

ORZ044-262310-
LOWER COLUMBIA BASIN...OREGON

CITY            SKY/WX      TMP DP  RH  WIND    PRES   REMARKS
HERMISTON       SUNNY       71  47  42  VRB6    30.20F
#BOARDMAN SCHOOLN/A         N/A N/A N/A CALM    30.20F
#BOARDMAN 8SW   N/A         69  50  51  NE3     30.18F
#ECHO 8SW       N/A         71  49  46  NE5     30.18F
#IONE SCHOOL    N/A         69  50  51  NE2     30.18F
#IRRIGON 4NW    N/A         70  50  49  E2      N/A
#UMATILLA       N/A         72  46  39  CALM    30.12F
$$

ORZ507-262310-
NORTHERN FOOTHILLS OF THE BLUES

CITY            SKY/WX      TMP DP  RH  WIND    PRES   REMARKS
PENDLETON AIRPT SUNNY       71  46  41  N8      30.20F
#ADAMS 3WNW     N/A         69  47  45  E2      30.20F
#ATHENA         N/A         69  48  47  NE2     30.22F
#CAYUSE         N/A         70  49  47  N2      30.18F
#HELIX SCHOOL   N/A         70  44  39  N3      30.22F
#HELIX 3N       N/A         65  48  54  N13     30.19F
#HOLDMAN 5SE    N/A         70  46  42  N5      30.20F
#HOLDMAN 6E     N/A         69  48  47  S6      30.03F
#M-F FERNDALE   N/A         74  47  38  CALM    30.20F
#M-FREEWATER 5SEN/A         70  52  53  NW3     30.20F
#PENDLETON DNTN N/A         76  44  32  CALM    30.19F
#PDT AQUATIC CTRN/A         75  50  41  N5      30.19F
#PENDLETON 5NE  N/A         72  51  48  NE1     30.16F
#PDT SUNRIDGE   N/A         73  45  37  W1      30.21F
#PENDLETON 7NW  N/A         71  51  49  E2      N/A
#PILOT ROCK     N/A         70  48  46  N5      30.21F
#TUTUILLA       N/A         72  48  43  NE6     30.20F
#UMAPINE 2E     N/A         72  51  48  W2      30.18F
#WESTON SCHOOL  N/A         67  46  47  E5      30.17F

$$

ORZ508-262310-
SOUTHERN FOOTHILLS OF THE BLUES

CITY            SKY/WX      TMP DP  RH  WIND    PRES   REMARKS
LEXINGTON       SUNNY       72  48  43  N10     30.21F
#AJAX           N/A         67  47  49  VRB8    30.12F
#CONDON SCHOOL  N/A         68  51  55  CALM    30.16F
#CONDON 5W      N/A         67  42  40  S2      30.21F
#FOSSIL SCHOOL  N/A         70  45  41  E2      30.16F
#HEPPNER EOC    N/A         73  49  43  NW1     30.13F
#HEPPNER 4NE    N/A         65  48  54  NE1     30.19F
#LEXINGTON 2SE  N/A         71  51  49  N10     30.17F
#MIKKALO        N/A         70  47  44  NE2     30.20F
#OLEX 4N        N/A         67  51  56  E2      30.19F
#RUGGS 5NE      N/A         72  48  43  NW6     30.40F
#RUGGS 2SW      N/A         65  49  56  NE6     30.21F

$$

ORZ502-503-262310-
BLUE MOUNTAINS

CITY            SKY/WX      TMP DP  RH  WIND    PRES   REMARKS
MEACHAM         SUNNY       65  44  46  CALM    30.27F
#BATTLE MTN DOT N/A         64  44  48  SE6     N/A
#HARDMAN 10S    N/A         61  43  51  S1      30.37F
#HEPPNER 15SE   N/A         69  43  39  S2      30.18F
#LADD CYN SMT   N/A         60  35  39  E12     N/A
#LADD CREEK ODOTN/A         63  41  44  S8      N/A
#LONG CREEK HS  N/A         65  44  46  CALM    30.21F
#N POWDER DOT   N/A         63  41  44  S6      N/A
#PIKES PEAK     N/A         60  45  58  N1      27.99S
#TOLLGATE       N/A         55  43  64  S1      30.23F
#TROY SCHOOL    N/A         68  48  49  N1      30.10F
#UKIAH          N/A         68  48  49  CALM    30.30F
#WESTON 4E      N/A         64  47  54  N5      30.20F
$$

ORZ505-262310-
JOHN DAY BASIN

CITY            SKY/WX      TMP DP  RH  WIND    PRES   REMARKS
JOHN DAY        SUNNY       68  42  39  E5      30.25F
#JOHN DAY KJDY  N/A         66  61  84  NE2     30.29R
#DAYVILLE SCHOOLN/A         71  42  35  E5      30.16F
#MITCHELL       N/A         72  49  44  SE2     30.31F
#MONUMENT HS    N/A         70  43  38  CALM    30.21F
#MT. VERNON 5SE N/A         66  43  43  E3      30.22F
#WINLOCK        N/A         70  46  42  NE5     30.29F
$$

ORZ506-262310-
OCHOCO AND JOHN DAY HIGHLANDS

CITY            SKY/WX      TMP DP  RH  WIND    PRES   REMARKS
#BUCK CREEK DOT N/A         66  66  100 E5      N/A
#HORSE RIDGE DO N/A         71  31  23  SE6     N/A
#KEYES SMT DOT  N/A         65  38  37  CALM    N/A
#PAULINA SCHOOL N/A         68  41  37  E1      30.20F
#PINE MTN OBS   N/A         57  35  43  SE8     N/A
#PRAIRIE CITY   N/A         69  41  36  CALM    30.13F
#SENECA         N/A         61  N/A N/A SE5     N/A
#SENECA 9NW     N/A         63  44  50  NE1     30.29F
$$

ORZ049-262310-
GRANDE RONDE VALLEY

CITY            SKY/WX      TMP DP  RH  WIND    PRES   REMARKS
LA GRANDE       SUNNY       66  41  40  S14     30.26F
#COVE           N/A         67  51  56  S1      30.25F
#COVE SCHOOL    N/A         68  47  47  E1      30.22F
#ELGIN 3N       N/A         65  43  45  S9      30.22F
#ELGIN 1E       N/A         66  46  48  S1      N/A
#IMBLER SCHOOL  N/A         64  47  54  S5      30.21F
#ISLAND CITY 4N N/A         69  58  68  CALM    30.17F
#LADD CYN DOT   N/A         62  41  46  S10     N/A
#UNION 1S       N/A         65  45  48  S8      30.20F
$$

ORZ050-262310-
WALLOWA COUNTY

CITY            SKY/WX      TMP DP  RH  WIND    PRES   REMARKS
JOSEPH AIRPORT  PTCLDY      63  41  44  CALM    30.31F
#ENTERPRISE HS  N/A         63  46  54  N1      30.24F
#IMNAHA SCHOOL  N/A         72  43  35  S6      30.22F
#IMNAHA 10S     N/A         66  43  43  E3      30.24F
#JOSEPH 3N      N/A         60  40  47  W5      30.28F
#JOSEPH 3W      N/A         60  41  49  E2      30.13F
#LOSTINE        N/A         62  44  52  NW1     30.12F
#MT HOWARD 8000 N/A         44  39  82  SE2     30.41F
#PROMISE 1S     N/A         59  46  62  SE2     30.40F
#SHEEP RDG 7000 N/A         45  39  79  CALM    30.37F
#WALLOWA SCHOOL N/A         61  44  53  CALM    31.27F



$$



USA.gov is the U.S. government's official web portal to all federal, state and local government web resources and services.